This is the latest recevied weather packets stored in our database for station/object CE3SUR-14. If no packets are shown the sender has not sent any weather packets the latest 10 day(s).
| Time | Temp. | Humidity | Pressure | Rain* | Wind** | Luminosity | Snow |
|---|---|---|---|---|---|---|---|
| 1788534668 | 22.22° C | 44% | 962.6 hPa | - | - | - | - |
| 1788531068 | 20.56° C | 46% | 963.1 hPa | - | - | - | - |
| 1788527466 | 18.89° C | 47% | 963.5 hPa | - | - | - | - |
| 1788523870 | 16.67° C | 50% | 963.5 hPa | - | - | - | - |
| 1788522069 | 16.67° C | 50% | 963.4 hPa | - | - | - | - |
| 1788516668 | 16.67° C | 50% | 963.2 hPa | - | - | - | - |
| 1788514868 | 17.22° C | 49% | 963.1 hPa | - | - | - | - |
| 1788513067 | 17.22° C | 49% | 963 hPa | - | - | - | - |
| 1788511267 | 17.78° C | 49% | 962.9 hPa | - | - | - | - |
| 1788509467 | 17.78° C | 49% | 962.9 hPa | - | - | - | - |
| 1788507667 | 18.33° C | 49% | 962.9 hPa | - | - | - | - |
| 1788505866 | 18.33° C | 48% | 963.1 hPa | - | - | - | - |
| 1788504065 | 18.33° C | 49% | 963.3 hPa | - | - | - | - |
| 1788502269 | 18.89° C | 48% | 963.6 hPa | - | - | - | - |
| 1788500468 | 18.89° C | 48% | 964 hPa | - | - | - | - |
| 1788498668 | 18.89° C | 48% | 964 hPa | - | - | - | - |
| 1788496957 | 19.44° C | 48% | 964.1 hPa | - | - | - | - |
| 1788496868 | 19.44° C | 48% | 964.1 hPa | - | - | - | - |
| 1788495068 | 20° C | 48% | 964 hPa | - | - | - | - |
| 1788493268 | 20° C | 48% | 964.1 hPa | - | - | - | - |
| 1788491881 | 20.56° C | 48% | 964.1 hPa | - | - | - | - |
| 1788491467 | 20.56° C | 48% | 964.1 hPa | - | - | - | - |
| 1788489667 | 20.56° C | 48% | 963.9 hPa | - | - | - | - |
| 1788487867 | 21.11° C | 47% | 963.9 hPa | - | - | - | - |
| 1788486067 | 21.11° C | 47% | 963.8 hPa | - | - | - | - |
* Rain since midnight (hover to see other rain measurements)
** Current wind speed in m/s (hover to see current wind gust speed)